Wind_Speed
4 5 1 5 3 7 4 4 4 3 4 2 4 7 11 13 12 12 12 12 11 10 16 23 30 35 35 36 38 38 36 35 32 28 24 20 21 19 21 22 19 20 22 22
5 1 2 6 4 3 4 2 3 3 2 4 6 11 10 9 15 16 16 15 13 6 8 15 21 28 34 38 40 40 41 38 34 33 32 25 24 21 19 22 24 22 21 23
3 3 5 3 2 2 2 4 4 7 3 3 4 7 3 5 7 9 10 10 9 14 11 9 16 26 27 34 40 43 43 42 37 37 32 24 23 20 20 19 18 19 23 22
1 1 3 2 3 2 2 6 4 2 1 3 4 5 5 2 7 9 9 8 9 8 6 6 15 18 29 38 34 40 39 40 41 39 34 33 28 19 19 16 15 13 14 16
4 5 4 2 5 5 3 6 3 2 2 5 2 2 8 0 5 10 9 9 9 8 10 12 15 23 20 17 26 32 36 37 37 38 36 31 28 25 19 15 12 10 8 9
5 1 3 7 4 4 5 4 6 5 3 2 2 4 8 3 3 2 4 10 11 11 8 10 17 20 24 23 24 28 28 36 34 31 31 31 30 22 12 10 6 3 6 5
1 4 4 4 1 3 4 5 3 4 3 5 4 1 10 6 5 4 6 6 7 7 7 3 2 14 23 30 30 35 31 30 31 32 27 25 17 12 8 4 4 9 8 6
0 6 7 5 6 5 3 6 5 5 4 5 3 6 6 4 7 6 4 3 5 6 5 6 5 4 13 23 35 31 33 26 28 28 24 18 11 11 11 14 18 18 13 10
4 6 1 2 3 4 2 4 3 4 3 2 3 7 9 3 4 3 3 1 4 5 5 4 2 1 2 15 29 26 23 21 21 22 18 14 15 12 8 6 14 10 6 5
5 4 1 1 3 1 5 4 1 3 2 4 4 5 5 8 7 3 4 4 2 4 6 4 2 1 4 9 18 20 21 22 19 17 14 12 20 11 6 16 13 11 8 9
5 3 6 1 3 6 1 0 5 4 4 4 2 6 7 8 9 8 7 6 4 2 5 4 4 5 8 8 16 24 25 24 22 21 16 8 14 14 22 22 13 12 12 12
4 5 4 2 4 2 1 3 4 4 5 2 4 6 4 8 12 7 7 4 3 3 3 4 5 8 8 14 18 22 25 23 25 14 12 14 13 19 17 16 15 14 12 11
5 2 3 8 6 4 1 2 5 5 3 5 3 6 0 4 7 7 9 7 6 4 4 4 6 8 10 12 16 22 22 21 18 15 16 15 16 15 16 18 17 14 14 12
7 3 6 7 6 3 2 3 3 4 3 3 6 7 9 6 8 5 4 2 2 4 4 4 4 6 10 14 16 19 18 20 19 20 20 21 18 18 18 17 14 12 11 11
4 3 3 5 6 4 5 7 5 7 7 6 8 8 13 8 14 14 7 5 6 6 5 5 5 4 6 11 14 17 16 15 17 19 19 19 18 17 17 15 12 12 10 10
3 2 5 4 5 7 6 9 9 7 4 8 7 8 3 5 5 10 11 8 7 9 7 7 7 8 8 11 15 18 21 18 20 19 20 21 20 18 15 13 14 13 13 10
3 6 3 6 3 5 5 7 5 4 4 5 5 8 2 4 8 7 9 10 10 8 8 8 7 9 11 13 16 18 21 20 20 21 19 18 18 16 15 14 14 12 11 10
5 5 2 3 3 3 8 5 6 5 5 5 7 6 2 3 3 4 6 10 7 6 7 8 8 9 9 11 11 15 20 19 17 18 17 16 16 15 15 14 14 12 10 8
3 5 2 2 3 6 3 3 2 3 6 5 5 1 2 1 3 3 3 4 8 8 6 11 16 17 16 13 14 16 16 16 16 16 16 15 15 14 12 12 11 9 8 6
5 4 4 3 2 4 7 1 2 3 5 3 5 4 4 2 1 4 2 5 7 11 15 18 20 18 16 17 18 17 16 16 16 15 14 13 12 11 11 10 9 9 7 8
2 2 2 3 4 7 6 4 1 1 7 2 5 6 6 5 6 5 3 2 8 13 16 18 21 19 20 21 21 20 19 18 15 13 12 11 12 11 9 8 8 8 9 10
5 3 3 2 1 6 2 2 4 5 4 4 5 6 7 10 4 1 5 5 5 7 16 20 21 21 21 23 24 23 21 17 15 13 12 13 12 11 11 9 8 9 10 10
2 6 4 8 6 4 2 4 3 3 5 4 5 9 9 5 2 6 5 6 5 9 14 21 23 21 25 27 27 25 21 17 16 15 15 15 12 12 11 10 10 10 11 11
3 4 3 1 5 5 4 4 5 5 6 7 9 3 5 4 5 5 4 6 5 8 13 19 20 22 24 29 28 24 19 18 18 18 15 13 12 11 12 13 13 13 15 16
5 5 4 5 7 6 5 7 6 8 6 9 10 5 3 6 6 5 5 6 10 13 15 21 22 21 26 31 28 24 21 20 19 18 15 16 16 15 14 14 15 16 18 17
5 7 5 7 8 6 7 5 5 6 6 6 3 2 5 6 9 6 6 8 13 14 18 19 21 22 26 28 26 23 22 22 20 19 19 20 20 19 18 17 16 16 17 19
Wind_Direction
2 52 236 225 38 53 12 58 346 302 324 173 254 248 218 193 200 195 196 212 211 215 222 212 203 207 206 209 206 205 204 204 201 202 202 203 208 221 225 227 234 235 239 242
24 270 355 21 34 42 74 77 256 226 305 178 227 250 233 187 212 204 206 208 217 208 201 207 198 192 194 198 207 208 208 209 208 205 204 203 206 218 238 232 233 243 240 252
134 305 108 166 85 108 200 188 212 199 257 205 308 275 218 225 190 201 214 207 201 208 194 209 195 193 189 194 203 208 211 212 210 208 206 204 210 219 217 224 233 238 245 245
133 269 199 288 145 204 336 185 275 221 281 268 15 285 293 218 221 210 192 185 188 197 184 196 204 197 194 200 201 208 213 213 209 208 210 208 205 206 222 226 232 244 250 244
272 204 194 240 246 181 287 66 11 260 72 348 29 68 267 53 244 224 205 196 195 185 188 190 205 200 206 201 200 207 211 212 212 214 215 219 222 224 222 219 225 225 205 203
242 221 221 202 267 176 67 53 34 41 64 308 311 167 285 261 238 274 208 210 194 184 193 193 198 197 195 194 208 215 219 220 220 221 220 221 225 223 216 214 214 258 254 223
226 240 275 163 243 67 111 68 326 356 1 234 334 138 250 295 286 250 229 214 183 169 195 195 164 192 183 187 206 221 223 226 225 224 226 232 221 213 185 182 348 290 290 295
285 313 193 186 199 186 156 158 161 226 212 262 68 235 257 257 310 335 54 67 81 79 100 82 34 44 187 198 210 213 213 219 227 223 228 221 191 152 60 9 317 293 288 274
172 261 163 176 147 157 148 212 215 114 31 40 233 288 298 309 308 14 348 105 105 109 104 107 100 34 284 220 207 205 200 201 203 206 202 195 149 117 62 340 288 272 237 200
217 297 21 137 134 91 153 171 9 17 274 287 297 284 252 319 283 225 249 250 184 127 110 126 156 176 263 232 197 174 184 173 162 161 148 131 131 103 333 248 242 223 211 184
140 129 289 44 208 170 155 310 57 119 136 188 256 277 219 246 260 222 209 192 223 62 87 94 95 114 127 137 150 159 154 159 152 148 150 185 198 236 211 204 204 201 186 173
191 147 197 195 313 336 142 124 118 116 281 205 178 268 4 302 285 199 203 175 164 153 127 109 94 88 88 108 116 122 137 153 156 169 171 168 177 166 164 170 178 182 172 168
186 15 34 349 353 2 122 177 109 109 94 222 161 268 212 321 320 247 182 178 175 127 103 81 70 72 88 102 115 132 142 147 156 163 147 148 168 161 163 167 162 162 167 166
82 116 154 192 212 173 291 235 195 139 132 216 232 275 294 251 238 243 268 217 133 125 129 101 100 84 97 114 116 117 130 139 145 147 151 160 163 163 160 156 159 171 171 161
91 171 178 243 236 196 227 237 213 198 213 178 251 215 258 235 213 209 197 195 186 214 186 141 129 132 111 104 114 127 137 144 150 150 154 155 153 159 161 162 168 166 164 157
20 237 170 274 239 218 249 265 250 241 251 260 270 274 262 303 163 199 200 199 204 209 192 175 160 155 151 146 140 142 143 153 155 157 159 158 159 162 166 173 166 164 164 156
158 143 128 250 315 341 282 239 225 244 206 193 246 249 304 279 229 223 220 211 217 221 212 199 160 171 163 172 158 153 146 156 160 156 158 158 161 165 164 163 157 158 162 165
136 115 123 235 30 249 248 302 236 232 259 232 286 273 235 306 211 163 189 202 199 191 184 186 173 160 174 181 172 157 157 157 156 156 159 162 157 157 159 159 162 164 163 166
114 126 110 163 206 286 267 231 220 182 277 210 234 1 295 0 270 339 176 232 190 185 167 173 183 181 170 181 172 168 167 158 160 157 159 158 156 158 157 160 163 166 183 197
78 78 125 120 186 247 243 262 23 126 278 320 168 183 176 143 4 218 310 238 198 186 182 174 181 186 175 175 174 171 171 169 170 166 164 161 160 165 172 171 179 198 221 245
357 357 168 171 219 284 247 265 116 119 246 315 197 190 180 204 210 141 124 49 185 184 181 178 176 177 184 177 175 175 176 182 175 175 172 176 180 184 191 204 221 238 250 265
180 163 218 112 212 289 39 323 181 224 277 254 221 214 210 234 112 98 98 109 179 173 166 172 168 182 184 182 178 182 188 184 185 181 183 193 196 203 215 229 246 248 248 257
273 184 191 176 219 236 272 243 263 224 247 247 232 239 235 274 204 181 133 163 194 195 167 173 178 180 186 188 190 187 192 186 191 200 204 207 211 221 233 233 236 245 250 259
234 160 191 83 273 248 235 260 243 237 239 268 242 289 281 272 186 171 173 168 191 196 186 180 174 175 188 194 198 200 187 188 189 197 198 199 213 219 228 236 243 252 257 262
213 147 189 256 281 282 260 220 229 261 259 271 273 224 276 278 254 203 204 190 193 200 196 186 184 186 194 197 203 205 203 196 196 197 192 202 213 219 231 241 249 258 272 273
189 202 178 239 232 195 245 223 209 246 248 280 202 56 334 233 263 182 216 198 189 196 194 190 199 201 199 201 205 202 203 201 201 205 209 214 220 225 234 246 260 268 273 283
Height
784 797 802 792 798 797 801 809 816 799 785 792 799 794 786 781 784 786 785 785 785 786 783 786 788 791 796 802 805 807 811 814 816 819 822 824 826 827 827 829 830 832 834 836
796 806 793 791 789 797 803 813 812 794 787 792 794 791 777 780 778 776 777 778 780 781 781 781 784 787 788 792 799 804 805 810 813 815 816 820 822 824 827 827 828 829 831 833
803 795 784 788 791 798 799 808 807 802 789 786 795 795 784 776 773 770 770 770 773 773 777 779 780 781 785 787 790 797 802 805 810 813 816 818 821 822 823 825 826 827 827 829
798 786 786 787 791 791 810 786 793 797 803 816 798 828 791 780 779 773 770 770 769 769 771 773 776 779 777 777 787 793 799 803 806 811 815 814 814 818 821 823 823 824 826 826
797 796 797 803 789 787 797 788 797 797 812 815 815 826 798 784 782 776 771 767 766 766 767 768 769 771 779 785 787 791 795 801 805 807 812 816 816 817 820 821 822 824 824 826
794 781 787 789 782 785 783 794 805 816 824 841 820 819 793 783 775 770 767 762 761 764 764 764 768 769 772 778 785 788 793 796 802 806 809 812 816 818 821 823 824 826 826 827
802 795 780 777 791 787 795 819 843 844 847 845 824 826 797 775 769 767 765 764 761 762 763 765 767 765 769 770 780 782 788 793 799 804 807 812 815 818 820 821 823 824 828 827
814 819 788 774 784 797 805 814 838 844 849 833 823 829 790 770 768 765 764 764 765 767 767 768 769 767 768 771 774 777 779 788 795 801 805 809 813 815 818 817 823 827 823 818
816 806 773 773 776 782 805 819 801 823 838 839 822 805 774 768 770 768 768 768 769 770 771 771 769 769 767 769 768 774 783 784 791 798 803 809 810 812 812 818 823 826 827 830
789 811 778 774 773 781 789 789 815 834 836 837 829 820 806 779 773 770 770 770 771 772 772 771 770 769 768 765 767 770 778 780 787 794 801 812 815 809 814 821 825 828 826 828
784 795 794 780 785 792 798 803 818 824 837 842 847 820 781 773 766 768 766 764 764 766 768 770 772 772 769 767 766 769 774 779 785 791 797 806 812 795 818 817 821 827 829 829
780 804 812 790 780 779 781 791 811 833 829 842 843 822 774 776 769 765 765 766 766 766 768 769 770 771 770 770 772 774 777 785 787 789 791 797 809 809 809 815 821 825 828 831
779 806 825 811 799 784 787 788 804 821 830 830 833 816 773 771 767 763 759 761 764 765 768 770 771 772 773 775 776 778 781 785 784 788 790 798 808 807 811 818 823 826 830 831
775 810 811 829 808 797 796 789 790 807 828 819 819 795 776 773 770 766 767 765 766 767 770 773 776 777 777 777 779 781 785 788 791 792 797 804 808 812 816 820 824 827 827 827
780 800 798 797 795 793 792 790 790 803 798 805 790 796 769 760 761 755 759 763 765 771 773 773 776 779 781 783 784 786 790 793 795 798 802 805 808 815 818 820 823 826 828 829
788 798 803 796 788 795 794 787 785 787 784 793 787 782 761 757 756 756 755 762 766 767 768 771 776 780 783 786 787 789 790 796 799 802 805 807 809 813 817 820 822 825 828 828
789 805 814 816 794 797 805 783 777 771 771 774 782 765 762 759 761 764 766 766 768 769 770 773 775 777 783 786 788 791 790 798 801 802 806 807 809 812 814 818 819 822 826 829
799 806 816 817 806 821 782 768 767 771 767 768 770 763 763 764 762 760 762 765 768 770 771 772 775 780 785 787 789 792 794 796 801 803 806 809 809 812 815 817 820 823 824 825
788 805 817 817 824 802 772 768 767 771 772 757 763 762 760 760 758 761 761 761 758 764 768 771 775 777 778 787 788 791 795 796 800 802 805 807 809 812 814 816 818 819 822 823
792 796 800 826 813 816 783 761 757 763 788 756 758 762 762 761 770 768 759 757 759 763 765 767 773 777 780 783 788 791 794 796 799 800 803 806 808 811 814 815 817 819 820 822
800 804 802 817 815 799 770 760 757 784 784 756 757 759 761 762 752 752 751 753 756 758 761 765 769 774 779 782 786 790 793 795 797 800 802 805 807 809 811 813 815 816 818 819
795 804 810 817 810 805 761 760 771 766 756 755 754 753 752 747 748 752 749 752 756 757 758 762 767 773 777 781 784 788 791 793 796 798 800 804 805 807 809 810 811 814 816 817
798 787 795 795 792 768 764 762 756 757 757 752 751 745 744 746 749 749 748 752 756 756 757 760 766 770 775 779 783 785 788 792 795 797 799 802 803 805 807 808 810 812 813 814
774 778 783 781 767 762 758 756 754 751 750 746 743 745 745 746 747 746 748 750 753 755 757 759 763 768 773 777 780 783 787 790 792 795 797 799 801 803 804 806 807 809 810 810
775 774 778 780 766 760 754 751 749 747 746 745 740 741 743 745 742 744 746 747 749 752 755 758 761 764 768 773 777 781 785 787 789 792 794 796 799 800 801 803 804 805 805 805
769 769 776 770 754 755 751 744 744 745 742 740 738 735 738 741 738 741 742 743 746 751 754 757 760 762 766 770 774 778 781 784 786 789 791 794 796 797 799 799 799 800 800 800